Hourly Data Report for September 26, 2017

All times are specified in Local Standard Time (LST). Add 1 hour to adjust for Daylight Saving Time where and when it is observed.

KAMLOOPS A
BRITISH COLUMBIA

50°42'09.000" N
120°26'55.000" W
345.30 m
1163781
71887
YKA

Download Data

Hourly Data (September 2017)
Hourly Data Report for September 26, 2017
Temp Definition
°C
Dew Point Temp Definition
°C
Rel Hum Definition
%
Wind Dir Definition
10's deg

Wind Spd Definition
km/h
Visibility Definition
km
Stn Press Definition
kPa
Hmdx Definition


Wind Chill Definition


Weather Definition


TIME
00:00 Legend Double Dagger 14.3 11.0 80 10 8 64.4 97.85     LegendNANA
01:00 Legend Double Dagger 14.2 11.1 81 8 8 64.4 97.88     Cloudy
02:00 Legend Double Dagger 14.2 10.9 80 9 8 64.4 97.92     LegendNANA
03:00 Legend Double Dagger 14.0 10.9 82 11 3 64.4 97.94     LegendNANA
04:00 Legend Double Dagger 13.7 11.2 85 10 5 64.4 97.97     Cloudy
05:00 Legend Double Dagger 13.2 11.2 87 9 5 64.4 98.00     LegendNANA
06:00 Legend Double Dagger 13.7 11.1 84 36 3 64.4 98.04     LegendNANA
07:00 Legend Double Dagger 13.7 11.0 84 36 1 64.4 98.09     Mostly Cloudy
08:00 Legend Double Dagger 14.6 10.8 78 36 2 64.4 98.13     LegendNANA
09:00 Legend Double Dagger 16.1 10.9 71 36 3 64.4 98.15     LegendNANA
10:00 Legend Double Dagger 17.9 10.3 61 13 9 64.4 98.12     Mainly Clear
11:00 Legend Double Dagger 19.6 9.5 52 10 4 64.4 98.09     LegendNANA
12:00 Legend Double Dagger 21.6 8.9 44 10 5 64.4 98.03     LegendNANA
13:00 Legend Double Dagger 23.3 8.8 39 12 9 64.4 97.96     Clear
14:00 Legend Double Dagger 25.1 7.7 33 11 12 64.4 97.91 25   LegendNANA
15:00 Legend Double Dagger 25.5 6.6 29 11 8 64.4 97.86 25   LegendNANA
16:00 Legend Double Dagger 25.9 5.5 27 9 10 64.4 97.83 25   Mainly Clear
17:00 Legend Double Dagger 23.4 6.8 34 11 13 64.4 97.84     LegendNANA
18:00 Legend Double Dagger 22.3 7.3 38 13 14 64.4 97.87     LegendNANA
19:00 Legend Double Dagger 20.8 9.4 48 11 18 64.4 97.94     Mainly Clear
20:00 Legend Double Dagger 18.2 9.2 55 8 14 64.4 98.00     LegendNANA
21:00 Legend Double Dagger 17.0 8.8 58 7 16 64.4 98.05     LegendNANA
22:00 Legend Double Dagger 15.0 7.6 61 9 14 64.4 98.11     Clear
23:00 Legend Double Dagger 14.1 8.4 68 10 13 64.4 98.15     LegendNANA

Notes on Data Quality.

Legend

  • E = Estimated
  • M = Missing
  • NA = Not Available
  • ‡ = Partner data that is not subject to review by the National Climate Archives
Date modified: